Terminal Aerodrome Forecast
Issued by NWS Houston/Galveston, TX

Home | Current Version | Previous Version | Text Only | Print | Product List | Glossary On
Versions: 1 2 3 4 5 6 7 8 9 10 11 12 13 14 15 16 17 18 19 20 21 22 23 24 25 26 27 28 29 30 31 32 33 34 35 36 37 38 39 40 41 42 43 44 45 46 47 48 49 50
000
FTUS44 KHGX 271009 AAC
TAFGLS
TAF AMD
KGLS 271009Z 2710/2806 13010KT 4SM BR VCTS OVC003CB
      TEMPO 2710/2712 3SM -TSRA BKN009CB
     FM271400 35009KT P6SM VCSH SCT015 BKN100
     FM271800 08010KT P6SM SCT040 BKN100
     FM272100 11010KT P6SM BKN040
     FM280300 12008KT 4SM BR OVC004=

USA.gov is the U.S. government's official web portal to all federal, state and local government web resources and services.